When you browse on this site, cookies collect data to enhance your experience and personalize the content and advertising you see.
Visit our Privacy Policy to learn more. By continuing to use the site, you agree to this use of cookies and data.
  • In Portugal
  • List of Countries
  • For 7 days
  • Water Temperature
  • Weather Map
  • Weather Widgets
  • user-avatar
    Login

    Hourly Weather Baltamahi

    Today, 23 September, Monday

    Time Temperature Precipitation Wind Pressure Humidity
    00:00 +8°C° 0 mm 2 mps 699 mmHg 67%
    01:00 +8°C° 0 mm 2 mps 699 mmHg 65%
    02:00 +8°C° 0 mm 2 mps 699 mmHg 62%
    03:00 +8°C° 0 mm 2 mps 699 mmHg 58%
    04:00 +8°C° 0 mm 2 mps 699 mmHg 58%
    05:00 +8°C° 0 mm 2 mps 699 mmHg 57%
    06:00 +9°C° 0 mm 1 mps 699 mmHg 57%
    07:00 +10°C° 0 mm 2 mps 699 mmHg 52%
    08:00 +14°C° 0 mm 2 mps 699 mmHg 47%
    09:00 +16°C° 0 mm 2 mps 700 mmHg 37%
    10:00 +16°C° 0 mm 2 mps 700 mmHg 37%
    11:00 +17°C° 0 mm 3 mps 699 mmHg 38%
    12:00 +17°C° 0 mm 3 mps 699 mmHg 38%
    13:00 +17°C° 0 mm 3 mps 699 mmHg 40%
    14:00 +17°C° 0 mm 3 mps 698 mmHg 42%
    15:00 +17°C° 0 mm 3 mps 698 mmHg 44%
    16:00 +15°C° 0 mm 2 mps 698 mmHg 51%
    17:00 +13°C° 0 mm 2 mps 698 mmHg 58%
    18:00 +11°C° 0 mm 1 mps 698 mmHg 65%
    19:00 +11°C° 0 mm 1 mps 698 mmHg 65%
    20:00 +11°C° 0 mm 1 mps 698 mmHg 64%
    21:00 +10°C° 0 mm 2 mps 699 mmHg 64%
    22:00 +10°C° 0 mm 2 mps 698 mmHg 63%
    23:00 +10°C° 0 mm 2 mps 698 mmHg 63%

    Tomorrow, 24 September, Tuesday

    Time Temperature Precipitation Wind Pressure Humidity
    00:00 +11°C° 0 mm 1 mps 698 mmHg 62%
    01:00 +11°C° 0 mm 1 mps 698 mmHg 61%
    02:00 +11°C° 0 mm 1 mps 698 mmHg 61%
    03:00 +10°C° 0 mm 1 mps 698 mmHg 60%
    04:00 +10°C° 0 mm 1 mps 698 mmHg 60%
    05:00 +10°C° 0 mm 1 mps 698 mmHg 59%
    06:00 +10°C° 0 mm 1 mps 698 mmHg 59%
    07:00 +13°C° 0 mm 2 mps 698 mmHg 54%
    08:00 +15°C° 0 mm 2 mps 699 mmHg 49%
    09:00 +17°C° 0 mm 2 mps 699 mmHg 44%
    10:00 +18°C° 0 mm 2 mps 699 mmHg 45%
    11:00 +18°C° 0 mm 3 mps 699 mmHg 45%
    12:00 +19°C° 0 mm 3 mps 698 mmHg 46%
    13:00 +19°C° 0 mm 3 mps 698 mmHg 51%
    14:00 +19°C° 0 mm 3 mps 698 mmHg 55%
    15:00 +18°C° 0 mm 3 mps 698 mmHg 59%
    16:00 +17°C° 0 mm 2 mps 698 mmHg 68%
    17:00 +15°C° 0 mm 2 mps 697 mmHg 77%
    18:00 +13°C° 0 mm 1 mps 697 mmHg 86%
    19:00 +13°C° 0 mm 1 mps 697 mmHg 85%
    20:00 +13°C° 0 mm 1 mps 697 mmHg 85%
    21:00 +12°C° 0 mm 1 mps 697 mmHg 84%
    22:00 +12°C° 0 mm 1 mps 697 mmHg 83%
    23:00 +12°C° 0 mm 1 mps 697 mmHg 82%

    Day after tomorrow, 25 September, Wednesday

    Time Temperature Precipitation Wind Pressure Humidity
    00:00 +12°C° 0 mm 1 mps 696 mmHg 80%
    01:00 +12°C° 0 mm 1 mps 696 mmHg 78%
    02:00 +12°C° 0 mm 1 mps 696 mmHg 76%
    03:00 +12°C° 0 mm 1 mps 696 mmHg 74%
    04:00 +12°C° 0 mm 1 mps 696 mmHg 74%
    05:00 +11°C° 0 mm 0 mps 696 mmHg 73%
    06:00 +11°C° 0 mm 0 mps 696 mmHg 73%
    07:00 +14°C° 0 mm 1 mps 696 mmHg 69%
    08:00 +15°C° 0 mm 1 mps 697 mmHg 65%
    09:00 +17°C° 0 mm 2 mps 697 mmHg 61%
    10:00 +18°C° 0 mm 2 mps 697 mmHg 62%
    11:00 +18°C° 0 mm 3 mps 697 mmHg 64%
    12:00 +18°C° 0 mm 3 mps 697 mmHg 66%
    13:00 +18°C° 0 mm 3 mps 697 mmHg 70%
    14:00 +17°C° 0 mm 3 mps 697 mmHg 74%
    15:00 +17°C° 0 mm 2 mps 697 mmHg 78%
    16:00 +16°C° 0 mm 2 mps 697 mmHg 81%
    17:00 +15°C° 0 mm 2 mps 697 mmHg 84%
    18:00 +15°C° 0 mm 1 mps 697 mmHg 86%
    19:00 +14°C° 0 mm 1 mps 697 mmHg 88%
    20:00 +14°C° 0 mm 1 mps 697 mmHg 90%
    21:00 +13°C° 0 mm 1 mps 698 mmHg 91%
    22:00 +12°C° 0 mm 0 mps 697 mmHg 90%
    23:00 +12°C° 0 mm 0 mps 697 mmHg 89%

    26 September, Thursday

    Time Temperature Precipitation Wind Pressure Humidity
    00:00 +12°C° 0 mm 0 mps 697 mmHg 87%
    01:00 +13°C° 0 mm 1 mps 697 mmHg 86%
    02:00 +13°C° 0 mm 1 mps 697 mmHg 84%
    03:00 +13°C° 0 mm 1 mps 697 mmHg 82%
    04:00 +13°C° 0 mm 1 mps 697 mmHg 81%
    05:00 +13°C° 0 mm 1 mps 697 mmHg 80%
    06:00 +13°C° 0 mm 1 mps 697 mmHg 79%
    07:00 +14°C° 0 mm 1 mps 697 mmHg 75%
    08:00 +15°C° 0 mm 1 mps 697 mmHg 70%
    09:00 +18°C° 0 mm 1 mps 697 mmHg 66%
    10:00 +18°C° 0 mm 2 mps 697 mmHg 62%
    11:00 +19°C° 0 mm 3 mps 698 mmHg 58%
    12:00 +20°C° 0 mm 3 mps 698 mmHg 54%
    13:00 +20°C° 0 mm 3 mps 697 mmHg 57%
    14:00 +19°C° 0 mm 3 mps 697 mmHg 61%
    15:00 +18°C° 0 mm 3 mps 697 mmHg 64%
    16:00 +17°C° 0 mm 2 mps 697 mmHg 71%
    17:00 +16°C° 0 mm 1 mps 697 mmHg 78%
    18:00 +14°C° 0 mm 1 mps 697 mmHg 85%
    19:00 +14°C° 0 mm 1 mps 697 mmHg 86%
    20:00 +13°C° 0 mm 1 mps 697 mmHg 87%
    21:00 +12°C° 0 mm 0 mps 697 mmHg 88%
    22:00 +13°C° 0 mm 1 mps 697 mmHg 88%
    23:00 +13°C° 0 mm 1 mps 696 mmHg 87%

    27 September, Friday

    Time Temperature Precipitation Wind Pressure Humidity
    00:00 +13°C° 0 mm 1 mps 696 mmHg 86%
    01:00 +13°C° 0 mm 1 mps 696 mmHg 85%
    02:00 +12°C° 0 mm 1 mps 696 mmHg 84%
    03:00 +12°C° 0 mm 1 mps 696 mmHg 83%
    04:00 +12°C° 0 mm 1 mps 696 mmHg 81%
    05:00 +12°C° 0 mm 1 mps 696 mmHg 80%
    06:00 +12°C° 0 mm 1 mps 696 mmHg 79%
    07:00 +14°C° 0 mm 1 mps 696 mmHg 72%
    08:00 +16°C° 0 mm 2 mps 697 mmHg 65%
    09:00 +18°C° 0 mm 2 mps 697 mmHg 58%
    10:00 +18°C° 0 mm 3 mps 697 mmHg 56%
    11:00 +19°C° 0 mm 3 mps 697 mmHg 55%
    12:00 +20°C° 0 mm 4 mps 697 mmHg 53%
    13:00 +20°C° 0 mm 4 mps 697 mmHg 56%
    14:00 +20°C° 0 mm 3 mps 696 mmHg 58%
    15:00 +20°C° 0 mm 3 mps 696 mmHg 61%
    16:00 +18°C° 0 mm 3 mps 696 mmHg 68%
    17:00 +17°C° 0 mm 2 mps 696 mmHg 75%
    18:00 +15°C° 0 mm 2 mps 696 mmHg 82%
    19:00 +15°C° 0 mm 1 mps 696 mmHg 81%
    20:00 +15°C° 0 mm 1 mps 696 mmHg 80%
    21:00 +15°C° 0 mm 1 mps 696 mmHg 79%
    22:00 +15°C° 0 mm 1 mps 696 mmHg 78%
    23:00 +15°C° 0 mm 1 mps 696 mmHg 76%

    28 September, Saturday

    Time Temperature Precipitation Wind Pressure Humidity
    00:00 +15°C° 0 mm 1 mps 696 mmHg 75%
    01:00 +15°C° 0 mm 1 mps 695 mmHg 76%
    02:00 +14°C° 0 mm 1 mps 695 mmHg 77%
    03:00 +13°C° 0 mm 0 mps 695 mmHg 79%
    04:00 +13°C° 0 mm 0 mps 695 mmHg 78%
    05:00 +13°C° 0 mm 0 mps 694 mmHg 78%
    06:00 +13°C° 0 mm 0 mps 694 mmHg 78%
    07:00 +15°C° 0 mm 1 mps 694 mmHg 72%
    08:00 +18°C° 0 mm 1 mps 694 mmHg 66%
    09:00 +18°C° 0 mm 2 mps 694 mmHg 59%
    10:00 +19°C° 0.1 mm 2 mps 695 mmHg 58%
    11:00 +19°C° 0.1 mm 3 mps 695 mmHg 57%
    12:00 +19°C° 0.1 mm 3 mps 695 mmHg 55%
    13:00 +17°C° 1.3 mm 3 mps 695 mmHg 66%
    14:00 +16°C° 1.3 mm 3 mps 695 mmHg 76%
    15:00 +13°C° 1.3 mm 4 mps 695 mmHg 86%
    16:00 +12°C° 1.1 mm 3 mps 696 mmHg 89%
    17:00 +12°C° 1.1 mm 3 mps 696 mmHg 91%
    18:00 +12°C° 1.1 mm 2 mps 697 mmHg 93%
    19:00 +12°C° 0.1 mm 2 mps 697 mmHg 93%
    20:00 +12°C° 0.1 mm 1 mps 698 mmHg 92%
    21:00 +12°C° 0.1 mm 1 mps 698 mmHg 92%
    22:00 +11°C° 0 mm 1 mps 698 mmHg 92%
    23:00 +11°C° 0 mm 1 mps 698 mmHg 92%
    Show more